Time,TemperatureF,DewpointF,PressureIn,WindDirection,WindDirectionDegrees,WindSpeedMPH,WindSpeedGustMPH,Humidity,HourlyPrecipIn,Conditions,Clouds,dailyrainin,SoftwareType,DateUTC
2013-03-16 00:00:00,44.3,28.7,29.76,NW,322,5.0,13.0,54,0.00,,---,0.00,VWS V14.01,2013-03-16 04:00:00,
2013-03-16 00:02:00,44.2,28.6,29.76,NW,305,5.0,5.0,54,0.00,,---,0.00,VWS V14.01,2013-03-16 04:02:00,
2013-03-16 00:04:00,44.2,28.6,29.76,NNW,338,5.0,5.0,54,0.00,,---,0.00,VWS V14.01,2013-03-16 04:04:00,
2013-03-16 00:09:00,44.0,28.9,29.77,NNW,342,5.0,5.0,55,0.00,,---,0.00,VWS V14.01,2013-03-16 04:09:00,
2013-03-16 00:14:00,43.7,29.0,29.77,NW,324,4.0,8.0,56,0.00,,---,0.00,VWS V14.01,2013-03-16 04:14:00,
2013-03-16 00:15:00,43.6,29.0,29.77,NNW,340,0.0,8.0,56,0.00,,---,0.00,VWS V14.01,2013-03-16 04:15:00,
2013-03-16 00:19:00,43.4,28.8,29.77,North,5,3.0,7.0,56,0.00,,---,0.00,VWS V14.01,2013-03-16 04:19:00,
2013-03-16 00:25:00,43.0,28.8,29.77,NNW,340,2.0,9.0,57,0.00,,---,0.00,VWS V14.01,2013-03-16 04:25:00,
2013-03-16 00:30:00,42.8,28.6,29.77,NE,36,4.0,9.0,57,0.00,,---,0.00,VWS V14.01,2013-03-16 04:30:00,
2013-03-16 00:35:00,42.7,28.5,29.77,North,355,6.0,11.0,57,0.00,,---,0.00,VWS V14.01,2013-03-16 04:35:00,
2013-03-16 00:40:00,42.5,28.4,29.77,North,355,4.0,11.0,57,0.00,,---,0.00,VWS V14.01,2013-03-16 04:40:00,
2013-03-16 00:45:00,42.3,28.2,29.77,NNE,13,2.0,11.0,57,0.00,,---,0.00,VWS V14.01,2013-03-16 04:45:00,
2013-03-16 00:50:00,42.2,28.5,29.77,NNW,345,6.0,6.0,58,0.00,,---,0.00,VWS V14.01,2013-03-16 04:50:00,
2013-03-16 00:55:00,42.1,28.4,29.77,NNE,17,0.0,8.0,58,0.00,,---,0.00,VWS V14.01,2013-03-16 04:55:00,
2013-03-16 01:00:00,41.9,28.2,29.77,NNE,13,0.0,8.0,58,0.00,,---,0.00,VWS V14.01,2013-03-16 05:00:00,
2013-03-16 01:05:00,41.8,28.1,29.77,NW,319,5.0,6.0,58,0.00,,---,0.00,VWS V14.01,2013-03-16 05:05:00,
2013-03-16 01:11:00,41.7,28.0,29.77,North,355,4.0,6.0,58,0.00,,---,0.00,VWS V14.01,2013-03-16 05:11:00,
2013-03-16 01:15:00,41.5,27.8,29.77,NNW,346,2.0,8.0,58,0.00,,---,0.00,VWS V14.01,2013-03-16 05:15:00,
2013-03-16 01:16:00,41.5,27.8,29.77,NNW,346,4.0,4.0,58,0.00,,---,0.00,VWS V14.01,2013-03-16 05:16:00,
2013-03-16 01:21:00,41.2,27.6,29.77,NW,309,4.0,10.0,58,0.00,,---,0.00,VWS V14.01,2013-03-16 05:21:00,
2013-03-16 01:26:00,40.9,27.7,29.77,NNW,335,4.0,10.0,59,0.00,,---,0.00,VWS V14.01,2013-03-16 05:26:00,
2013-03-16 01:30:00,40.7,27.5,29.77,North,11,4.0,10.0,59,0.00,,---,0.00,VWS V14.01,2013-03-16 05:30:00,
2013-03-16 01:31:00,40.7,27.5,29.77,North,5,2.0,5.0,59,0.00,,---,0.00,VWS V14.01,2013-03-16 05:31:00,
2013-03-16 01:37:00,40.6,27.4,29.77,NNE,13,0.0,6.0,59,0.00,,---,0.00,VWS V14.01,2013-03-16 05:37:00,
2013-03-16 01:42:00,40.4,27.2,29.78,NNW,330,0.0,6.0,59,0.00,,---,0.00,VWS V14.01,2013-03-16 05:42:00,
2013-03-16 01:45:00,40.2,27.0,29.78,NNW,330,0.0,6.0,59,0.00,,---,0.00,VWS V14.01,2013-03-16 05:45:00,
2013-03-16 01:47:00,40.2,27.0,29.78,NNW,330,0.0,1.0,59,0.00,,---,0.00,VWS V14.01,2013-03-16 05:47:00,
2013-03-16 01:52:00,40.2,27.0,29.78,NNW,330,0.0,2.0,59,0.00,,---,0.00,VWS V14.01,2013-03-16 05:52:00,
2013-03-16 01:57:00,40.1,26.9,29.78,WNW,295,2.0,4.0,59,0.00,,---,0.00,VWS V14.01,2013-03-16 05:57:00,
2013-03-16 02:00:00,39.9,27.2,29.78,WNW,296,0.0,4.0,60,0.00,,---,0.00,VWS V14.01,2013-03-16 06:00:00,
2013-03-16 02:03:00,39.8,27.1,29.78,NW,311,4.0,4.0,60,0.00,,---,0.00,VWS V14.01,2013-03-16 06:03:00,
2013-03-16 02:08:00,39.5,26.8,29.79,NW,313,3.0,5.0,60,0.00,,---,0.00,VWS V14.01,2013-03-16 06:08:00,
2013-03-16 02:13:00,39.2,26.5,29.79,NW,317,0.0,5.0,60,0.00,,---,0.00,VWS V14.01,2013-03-16 06:13:00,
2013-03-16 02:15:00,39.1,26.4,29.79,NW,317,0.0,5.0,60,0.00,,---,0.00,VWS V14.01,2013-03-16 06:15:00,
2013-03-16 02:18:00,39.0,26.7,29.79,NW,317,0.0,0.0,61,0.00,,---,0.00,VWS V14.01,2013-03-16 06:18:00,
2013-03-16 02:23:00,38.8,26.1,29.79,North,355,0.0,7.0,60,0.00,,---,0.00,VWS V14.01,2013-03-16 06:23:00,
2013-03-16 02:28:00,38.6,25.9,29.79,NNW,337,0.0,7.0,60,0.00,,---,0.00,VWS V14.01,2013-03-16 06:28:00,
2013-03-16 02:30:00,38.5,25.8,29.79,NNW,337,0.0,7.0,60,0.00,,---,0.00,VWS V14.01,2013-03-16 06:30:00,
2013-03-16 02:33:00,38.4,25.7,29.79,NNW,338,0.0,2.0,60,0.00,,---,0.00,VWS V14.01,2013-03-16 06:33:00,
2013-03-16 02:39:00,38.3,25.6,29.80,NE,36,2.0,5.0,60,0.00,,---,0.00,VWS V14.01,2013-03-16 06:39:00,
2013-03-16 02:44:00,38.1,25.5,29.80,North,355,0.0,5.0,60,0.00,,---,0.00,VWS V14.01,2013-03-16 06:44:00,
2013-03-16 02:45:00,38.0,25.4,29.80,North,355,0.0,5.0,60,0.00,,---,0.00,VWS V14.01,2013-03-16 06:45:00,
2013-03-16 02:49:00,37.9,25.3,29.80,North,355,0.0,3.0,60,0.00,,---,0.00,VWS V14.01,2013-03-16 06:49:00,
2013-03-16 02:54:00,37.8,25.2,29.80,NNW,341,5.0,5.0,60,0.00,,---,0.00,VWS V14.01,2013-03-16 06:54:00,
2013-03-16 02:59:00,37.7,25.1,29.80,North,355,0.0,6.0,60,0.00,,---,0.00,VWS V14.01,2013-03-16 06:59:00,
2013-03-16 03:00:00,37.6,25.0,29.80,North,355,5.0,6.0,60,0.00,,---,0.00,VWS V14.01,2013-03-16 07:00:00,
2013-03-16 03:04:00,37.5,24.9,29.80,North,355,0.0,4.0,60,0.00,,---,0.00,VWS V14.01,2013-03-16 07:04:00,
2013-03-16 03:09:00,37.4,24.8,29.80,North,355,0.0,4.0,60,0.00,,---,0.00,VWS V14.01,2013-03-16 07:09:00,
2013-03-16 03:14:00,37.2,24.6,29.80,North,355,0.0,4.0,60,0.00,,---,0.00,VWS V14.01,2013-03-16 07:14:00,
2013-03-16 03:15:00,37.1,24.5,29.80,North,355,0.0,4.0,60,0.00,,---,0.00,VWS V14.01,2013-03-16 07:15:00,
2013-03-16 03:19:00,36.9,24.7,29.80,North,355,0.0,2.0,61,0.00,,---,0.00,VWS V14.01,2013-03-16 07:19:00,
2013-03-16 03:24:00,36.7,24.5,29.80,NNW,335,1.0,4.0,61,0.00,,---,0.00,VWS V14.01,2013-03-16 07:24:00,
2013-03-16 03:29:00,37.0,24.4,29.80,NW,309,2.0,7.0,60,0.00,,---,0.00,VWS V14.01,2013-03-16 07:29:00,
2013-03-16 03:30:00,37.0,24.4,29.80,NW,310,3.0,7.0,60,0.00,,---,0.00,VWS V14.01,2013-03-16 07:30:00,
2013-03-16 03:34:00,37.0,24.0,29.80,NW,323,2.0,5.0,59,0.00,,---,0.00,VWS V14.01,2013-03-16 07:34:00,
2013-03-16 03:40:00,37.0,24.0,29.80,North,360,3.0,7.0,59,0.00,,---,0.00,VWS V14.01,2013-03-16 07:40:00,
2013-03-16 03:45:00,37.1,23.7,29.80,NNW,331,5.0,10.0,58,0.00,,---,0.00,VWS V14.01,2013-03-16 07:45:00,
2013-03-16 03:50:00,37.1,23.3,29.80,NNW,342,6.0,7.0,57,0.00,,---,0.00,VWS V14.01,2013-03-16 07:50:00,
2013-03-16 03:55:00,37.4,22.7,29.80,NW,315,4.0,11.0,55,0.00,,---,0.00,VWS V14.01,2013-03-16 07:55:00,
2013-03-16 04:00:00,37.6,22.5,29.80,NW,325,5.0,11.0,54,0.00,,---,0.00,VWS V14.01,2013-03-16 08:00:00,
2013-03-16 04:05:00,37.5,22.4,29.80,NW,317,0.0,6.0,54,0.00,,---,0.00,VWS V14.01,2013-03-16 08:05:00,
2013-03-16 04:11:00,37.4,22.3,29.80,West,259,0.0,6.0,54,0.00,,---,0.00,VWS V14.01,2013-03-16 08:11:00,
2013-03-16 04:15:00,37.2,22.1,29.80,NNW,327,0.0,6.0,54,0.00,,---,0.00,VWS V14.01,2013-03-16 08:15:00,
2013-03-16 04:16:00,37.1,22.0,29.80,NNW,327,0.0,6.0,54,0.00,,---,0.00,VWS V14.01,2013-03-16 08:16:00,
2013-03-16 04:21:00,36.8,22.2,29.80,NNW,327,3.0,4.0,55,0.00,,---,0.00,VWS V14.01,2013-03-16 08:21:00,
2013-03-16 04:26:00,36.7,22.1,29.80,NW,321,0.0,6.0,55,0.00,,---,0.00,VWS V14.01,2013-03-16 08:26:00,
2013-03-16 04:30:00,36.6,22.0,29.81,WNW,287,0.0,6.0,55,0.00,,---,0.00,VWS V14.01,2013-03-16 08:30:00,
2013-03-16 04:32:00,36.6,22.0,29.81,WNW,287,0.0,1.0,55,0.00,,---,0.00,VWS V14.01,2013-03-16 08:32:00,
2013-03-16 04:37:00,36.6,21.5,29.81,NW,318,4.0,7.0,54,0.00,,---,0.00,VWS V14.01,2013-03-16 08:37:00,
2013-03-16 04:42:00,36.7,21.6,29.81,NW,326,0.0,7.0,54,0.00,,---,0.00,VWS V14.01,2013-03-16 08:42:00,
2013-03-16 04:45:00,36.5,21.5,29.81,NW,326,3.0,7.0,54,0.00,,---,0.00,VWS V14.01,2013-03-16 08:45:00,
2013-03-16 04:47:00,36.5,21.5,29.81,NNW,329,0.0,5.0,54,0.00,,---,0.00,VWS V14.01,2013-03-16 08:47:00,
2013-03-16 04:52:00,36.2,21.2,29.81,NNW,329,3.0,5.0,54,0.00,,---,0.00,VWS V14.01,2013-03-16 08:52:00,
2013-03-16 04:57:00,36.1,21.5,29.81,NNW,329,0.0,5.0,55,0.00,,---,0.00,VWS V14.01,2013-03-16 08:57:00,
2013-03-16 05:00:00,36.0,21.4,29.81,NNW,329,0.0,5.0,55,0.00,,---,0.00,VWS V14.01,2013-03-16 09:00:00,
2013-03-16 05:02:00,35.9,21.3,29.81,NNW,329,0.0,0.0,55,0.00,,---,0.00,VWS V14.01,2013-03-16 09:02:00,
2013-03-16 05:08:00,35.8,21.2,29.81,NNW,329,0.0,0.0,55,0.00,,---,0.00,VWS V14.01,2013-03-16 09:08:00,
2013-03-16 05:13:00,35.5,21.0,29.81,NNW,329,0.0,1.0,55,0.00,,---,0.00,VWS V14.01,2013-03-16 09:13:00,
2013-03-16 05:15:00,35.2,21.1,29.80,NNW,329,0.0,1.0,56,0.00,,---,0.00,VWS V14.01,2013-03-16 09:15:00,
2013-03-16 05:18:00,34.9,21.2,29.81,NNW,329,0.0,3.0,57,0.00,,---,0.00,VWS V14.01,2013-03-16 09:18:00,
2013-03-16 05:23:00,34.4,20.8,29.81,NNW,329,0.0,3.0,57,0.00,,---,0.00,VWS V14.01,2013-03-16 09:23:00,
2013-03-16 05:28:00,33.9,21.1,29.81,NNW,329,0.0,3.0,59,0.00,,---,0.00,VWS V14.01,2013-03-16 09:28:00,
2013-03-16 05:30:00,33.8,21.0,29.81,NNW,329,0.0,3.0,59,0.00,,---,0.00,VWS V14.01,2013-03-16 09:30:00,
2013-03-16 05:33:00,33.9,21.1,29.82,NNW,329,0.0,0.0,59,0.00,,---,0.00,VWS V14.01,2013-03-16 09:33:00,
2013-03-16 05:38:00,34.1,21.3,29.82,NNW,329,0.0,0.0,59,0.00,,---,0.00,VWS V14.01,2013-03-16 09:38:00,
2013-03-16 05:44:00,33.9,21.1,29.82,NNW,329,2.0,3.0,59,0.00,,---,0.00,VWS V14.01,2013-03-16 09:44:00,
2013-03-16 05:45:00,33.7,20.9,29.82,NNW,329,0.0,3.0,59,0.00,,---,0.00,VWS V14.01,2013-03-16 09:45:00,
2013-03-16 05:49:00,33.6,20.8,29.82,NNW,329,0.0,0.0,59,0.00,,---,0.00,VWS V14.01,2013-03-16 09:49:00,
2013-03-16 05:54:00,33.8,21.4,29.82,NNW,329,0.0,0.0,60,0.00,,---,0.00,VWS V14.01,2013-03-16 09:54:00,
2013-03-16 05:59:00,33.5,21.5,29.83,NNW,329,0.0,0.0,61,0.00,,---,0.00,VWS V14.01,2013-03-16 09:59:00,
2013-03-16 06:00:00,33.3,21.3,29.82,NNW,329,0.0,0.0,61,0.00,,---,0.00,VWS V14.01,2013-03-16 10:00:00,
2013-03-16 06:04:00,33.1,21.1,29.82,NNW,329,0.0,0.0,61,0.00,,---,0.00,VWS V14.01,2013-03-16 10:04:00,
2013-03-16 06:09:00,32.8,21.2,29.82,NNW,329,0.0,2.0,62,0.00,,---,0.00,VWS V14.01,2013-03-16 10:09:00,
2013-03-16 06:14:00,32.6,21.0,29.83,NNW,329,0.0,2.0,62,0.00,,---,0.00,VWS V14.01,2013-03-16 10:14:00,
2013-03-16 06:15:00,32.6,21.4,29.83,NNW,329,2.0,3.0,63,0.00,,---,0.00,VWS V14.01,2013-03-16 10:15:00,
2013-03-16 06:19:00,32.3,21.5,29.83,NNW,329,1.0,3.0,64,0.00,,---,0.00,VWS V14.01,2013-03-16 10:19:00,
2013-03-16 06:24:00,32.3,21.5,29.83,NNW,329,0.0,3.0,64,0.00,,---,0.00,VWS V14.01,2013-03-16 10:24:00,
2013-03-16 06:30:00,32.5,21.7,29.83,NNW,329,0.0,3.0,64,0.00,,---,0.00,VWS V14.01,2013-03-16 10:30:00,
2013-03-16 06:35:00,32.5,21.3,29.83,NNW,329,0.0,0.0,63,0.00,,---,0.00,VWS V14.01,2013-03-16 10:35:00,
2013-03-16 06:40:00,32.5,21.7,29.83,NNW,329,0.0,0.0,64,0.00,,---,0.00,VWS V14.01,2013-03-16 10:40:00,
2013-03-16 06:45:00,32.2,21.8,29.83,NNW,329,0.0,0.0,65,0.00,,---,0.00,VWS V14.01,2013-03-16 10:45:00,
2013-03-16 06:50:00,31.9,21.9,29.83,NNW,329,0.0,0.0,66,0.00,,---,0.00,VWS V14.01,2013-03-16 10:50:00,
2013-03-16 06:55:00,32.0,21.9,29.83,NNW,329,0.0,0.0,66,0.00,,---,0.00,VWS V14.01,2013-03-16 10:55:00,
2013-03-16 07:00:00,32.0,21.6,29.83,NNW,329,1.0,3.0,65,0.00,,---,0.00,VWS V14.01,2013-03-16 11:00:00,
2013-03-16 07:01:00,32.0,21.6,29.83,NNW,329,2.0,3.0,65,0.00,,---,0.00,VWS V14.01,2013-03-16 11:01:00,
2013-03-16 07:06:00,32.2,21.8,29.83,NNW,329,0.0,3.0,65,0.00,,---,0.00,VWS V14.01,2013-03-16 11:06:00,
2013-03-16 07:11:00,32.6,21.8,29.82,NNW,329,0.0,3.0,64,0.00,,---,0.00,VWS V14.01,2013-03-16 11:11:00,
2013-03-16 07:15:00,32.9,21.7,29.82,NNW,329,0.0,3.0,63,0.00,,---,0.00,VWS V14.01,2013-03-16 11:15:00,
2013-03-16 07:16:00,32.9,21.7,29.82,NNW,329,1.0,2.0,63,0.00,,---,0.00,VWS V14.01,2013-03-16 11:16:00,
2013-03-16 07:21:00,33.0,21.8,29.83,NNW,329,1.0,2.0,63,0.00,,---,0.00,VWS V14.01,2013-03-16 11:21:00,
2013-03-16 07:27:00,32.9,21.3,29.83,NNW,329,0.0,2.0,62,0.00,,---,0.00,VWS V14.01,2013-03-16 11:27:00,
2013-03-16 07:30:00,33.2,20.8,29.84,NNW,329,2.0,2.0,60,0.00,,---,0.00,VWS V14.01,2013-03-16 11:30:00,
2013-03-16 07:32:00,33.3,20.9,29.84,NNW,329,1.0,2.0,60,0.00,,---,0.00,VWS V14.01,2013-03-16 11:32:00,
2013-03-16 07:37:00,33.6,20.8,29.84,NNW,329,2.0,4.0,59,0.00,,---,0.00,VWS V14.01,2013-03-16 11:37:00,
2013-03-16 07:42:00,34.0,20.8,29.84,NNE,12,0.0,6.0,58,0.00,,---,0.00,VWS V14.01,2013-03-16 11:42:00,
2013-03-16 07:45:00,34.0,20.4,29.84,NNE,15,3.0,6.0,57,0.00,,---,0.00,VWS V14.01,2013-03-16 11:45:00,
2013-03-16 07:48:00,34.1,20.5,29.84,NNE,15,2.0,3.0,57,0.00,,---,0.00,VWS V14.01,2013-03-16 11:48:00,
2013-03-16 07:53:00,34.2,20.6,29.85,NNE,15,0.0,3.0,57,0.00,,---,0.00,VWS V14.01,2013-03-16 11:53:00,
2013-03-16 07:58:00,34.3,20.2,29.84,NNW,335,3.0,6.0,56,0.00,,---,0.00,VWS V14.01,2013-03-16 11:58:00,
2013-03-16 08:00:00,34.4,20.3,29.84,NNW,342,0.0,6.0,56,0.00,,---,0.00,VWS V14.01,2013-03-16 12:00:00,
2013-03-16 08:03:00,34.4,19.9,29.85,NE,53,6.0,8.0,55,0.00,,---,0.00,VWS V14.01,2013-03-16 12:03:00,
2013-03-16 08:08:00,34.4,19.5,29.85,North,349,0.0,8.0,54,0.00,,---,0.00,VWS V14.01,2013-03-16 12:08:00,
2013-03-16 08:13:00,34.4,19.5,29.85,North,9,5.0,8.0,54,0.00,,---,0.00,VWS V14.01,2013-03-16 12:13:00,
2013-03-16 08:15:00,34.4,19.0,29.85,North,5,3.0,8.0,53,0.00,,---,0.00,VWS V14.01,2013-03-16 12:15:00,
2013-03-16 08:18:00,34.5,19.1,29.85,North,9,0.0,4.0,53,0.00,,---,0.00,VWS V14.01,2013-03-16 12:18:00,
2013-03-16 08:24:00,34.6,19.2,29.85,North,5,3.0,6.0,53,0.00,,---,0.00,VWS V14.01,2013-03-16 12:24:00,
2013-03-16 08:29:00,34.7,19.3,29.85,North,5,2.0,6.0,53,0.00,,---,0.00,VWS V14.01,2013-03-16 12:29:00,
2013-03-16 08:30:00,34.7,19.3,29.85,North,5,0.0,6.0,53,0.00,,---,0.00,VWS V14.01,2013-03-16 12:30:00,
2013-03-16 08:34:00,34.8,19.4,29.85,North,5,1.0,2.0,53,0.00,,---,0.00,VWS V14.01,2013-03-16 12:34:00,
2013-03-16 08:39:00,34.9,19.5,29.85,North,5,1.0,6.0,53,0.00,,---,0.00,VWS V14.01,2013-03-16 12:39:00,
2013-03-16 08:44:00,35.0,19.2,29.85,North,5,0.0,6.0,52,0.00,,---,0.00,VWS V14.01,2013-03-16 12:44:00,
2013-03-16 08:45:00,35.0,19.6,29.85,NE,38,2.0,6.0,53,0.00,,---,0.00,VWS V14.01,2013-03-16 12:45:00,
2013-03-16 08:49:00,35.0,19.2,29.85,NE,47,0.0,7.0,52,0.00,,---,0.00,VWS V14.01,2013-03-16 12:49:00,
2013-03-16 08:55:00,35.1,19.3,29.85,North,9,0.0,7.0,52,0.00,,---,0.00,VWS V14.01,2013-03-16 12:55:00,
2013-03-16 09:00:00,35.2,19.4,29.85,NE,53,5.0,7.0,52,0.00,,---,0.00,VWS V14.01,2013-03-16 13:00:00,
2013-03-16 09:05:00,35.2,19.4,29.84,NE,36,2.0,7.0,52,0.00,,---,0.00,VWS V14.01,2013-03-16 13:05:00,
2013-03-16 09:10:00,35.4,19.5,29.84,NE,36,5.0,7.0,52,0.00,,---,0.00,VWS V14.01,2013-03-16 13:10:00,
2013-03-16 09:15:00,35.4,19.1,29.83,NNE,22,2.0,8.0,51,0.00,,---,0.00,VWS V14.01,2013-03-16 13:15:00,
2013-03-16 09:21:00,35.5,19.2,29.83,NE,44,3.0,8.0,51,0.00,,---,0.00,VWS V14.01,2013-03-16 13:21:00,
2013-03-16 09:26:00,35.4,19.1,29.83,NNE,17,1.0,8.0,51,0.00,,---,0.00,VWS V14.01,2013-03-16 13:26:00,
2013-03-16 09:30:00,35.5,19.2,29.83,NE,34,0.0,8.0,51,0.00,,---,0.00,VWS V14.01,2013-03-16 13:30:00,
2013-03-16 09:31:00,35.5,19.2,29.83,NE,34,2.0,8.0,51,0.00,,---,0.00,VWS V14.01,2013-03-16 13:31:00,
2013-03-16 09:36:00,35.6,19.3,29.83,ENE,57,3.0,6.0,51,0.00,,---,0.00,VWS V14.01,2013-03-16 13:36:00,
2013-03-16 09:42:00,35.6,19.3,29.83,NNE,19,4.0,7.0,51,0.00,,---,0.00,VWS V14.01,2013-03-16 13:42:00,
2013-03-16 09:45:00,35.6,19.3,29.83,North,9,1.0,7.0,51,0.00,,---,0.00,VWS V14.01,2013-03-16 13:45:00,
2013-03-16 09:47:00,35.6,19.3,29.83,North,9,1.0,3.0,51,0.00,,---,0.00,VWS V14.01,2013-03-16 13:47:00,
2013-03-16 09:52:00,35.7,19.4,29.84,ENE,77,3.0,6.0,51,0.00,,---,0.00,VWS V14.01,2013-03-16 13:52:00,
2013-03-16 09:57:00,35.8,19.0,29.84,North,9,2.0,8.0,50,0.00,,---,0.00,VWS V14.01,2013-03-16 13:57:00,
2013-03-16 10:00:00,35.9,19.5,29.84,North,10,7.0,8.0,51,0.00,,---,0.00,VWS V14.01,2013-03-16 14:00:00,
2013-03-16 10:02:00,35.9,19.1,29.84,NE,38,4.0,7.0,50,0.00,,---,0.00,VWS V14.01,2013-03-16 14:02:00,
2013-03-16 10:07:00,36.1,19.3,29.84,NNW,348,4.0,7.0,50,0.00,,---,0.00,VWS V14.01,2013-03-16 14:07:00,
2013-03-16 10:13:00,36.1,19.3,29.84,North,9,0.0,7.0,50,0.00,,---,0.00,VWS V14.01,2013-03-16 14:13:00,
2013-03-16 10:15:00,36.1,19.3,29.84,NNE,18,5.0,8.0,50,0.00,,---,0.00,VWS V14.01,2013-03-16 14:15:00,
2013-03-16 10:18:00,36.0,19.2,29.84,NE,34,7.0,9.0,50,0.00,,---,0.00,VWS V14.01,2013-03-16 14:18:00,
2013-03-16 10:23:00,35.9,19.5,29.84,NNE,24,2.0,9.0,51,0.00,,---,0.00,VWS V14.01,2013-03-16 14:23:00,
2013-03-16 10:28:00,35.9,19.1,29.84,North,360,5.0,9.0,50,0.00,,---,0.00,VWS V14.01,2013-03-16 14:28:00,
2013-03-16 10:30:00,36.0,19.6,29.83,NNE,19,3.0,9.0,51,0.00,,---,0.00,VWS V14.01,2013-03-16 14:30:00,
2013-03-16 10:33:00,36.0,19.6,29.83,NNE,21,0.0,5.0,51,0.00,,---,0.00,VWS V14.01,2013-03-16 14:33:00,
2013-03-16 10:38:00,36.2,19.4,29.83,North,5,3.0,7.0,50,0.00,,---,0.00,VWS V14.01,2013-03-16 14:38:00,
2013-03-16 10:43:00,36.2,19.8,29.83,NE,53,5.0,7.0,51,0.00,,---,0.00,VWS V14.01,2013-03-16 14:43:00,
2013-03-16 10:45:00,36.3,19.5,29.83,NE,53,0.0,7.0,50,0.00,,---,0.00,VWS V14.01,2013-03-16 14:45:00,
2013-03-16 10:49:00,36.4,19.5,29.84,NE,53,2.0,3.0,50,0.00,,---,0.00,VWS V14.01,2013-03-16 14:49:00,
2013-03-16 10:54:00,36.3,19.5,29.83,NNE,16,1.0,5.0,50,0.00,,---,0.00,VWS V14.01,2013-03-16 14:54:00,
2013-03-16 10:59:00,36.5,19.6,29.83,NNE,15,4.0,5.0,50,0.00,,---,0.00,VWS V14.01,2013-03-16 14:59:00,
2013-03-16 11:00:00,36.5,19.6,29.84,NNE,15,0.0,5.0,50,0.00,,---,0.00,VWS V14.01,2013-03-16 15:00:00,
2013-03-16 11:04:00,36.7,20.3,29.84,NNE,15,2.0,2.0,51,0.00,,---,0.00,VWS V14.01,2013-03-16 15:04:00,
2013-03-16 11:09:00,36.5,19.6,29.84,NW,321,6.0,7.0,50,0.00,,---,0.00,VWS V14.01,2013-03-16 15:09:00,
2013-03-16 11:15:00,36.1,19.7,29.84,NNE,17,2.0,7.0,51,0.00,,---,0.00,VWS V14.01,2013-03-16 15:15:00,
2013-03-16 11:20:00,36.0,20.1,29.84,NNW,348,3.0,8.0,52,0.00,,---,0.00,VWS V14.01,2013-03-16 15:20:00,
2013-03-16 11:26:00,35.7,20.3,29.84,North,355,0.0,8.0,53,0.00,,---,0.00,VWS V14.01,2013-03-16 15:26:00,
2013-03-16 11:30:00,35.8,20.8,29.85,North,355,0.0,8.0,54,0.00,,---,0.00,VWS V14.01,2013-03-16 15:30:00,
2013-03-16 11:31:00,35.8,20.8,29.85,North,355,0.0,8.0,54,0.00,,---,0.00,VWS V14.01,2013-03-16 15:31:00,
2013-03-16 11:37:00,36.4,21.4,29.85,North,355,1.0,1.0,54,0.00,,---,0.00,VWS V14.01,2013-03-16 15:37:00,
2013-03-16 11:42:00,36.3,22.1,29.85,North,5,0.0,6.0,56,0.00,,---,0.00,VWS V14.01,2013-03-16 15:42:00,
2013-03-16 11:45:00,36.1,21.9,29.84,ENE,78,2.0,6.0,56,0.00,,---,0.00,VWS V14.01,2013-03-16 15:45:00,
2013-03-16 11:47:00,36.1,21.9,29.84,ENE,78,0.0,3.0,56,0.00,,---,0.00,VWS V14.01,2013-03-16 15:47:00,
2013-03-16 11:52:00,36.0,21.8,29.84,WSW,254,2.0,4.0,56,0.00,,---,0.00,VWS V14.01,2013-03-16 15:52:00,
2013-03-16 11:57:00,35.9,22.6,29.84,WSW,257,0.0,5.0,58,0.00,,---,0.00,VWS V14.01,2013-03-16 15:57:00,
2013-03-16 12:00:00,36.1,21.9,29.84,West,259,3.0,5.0,56,0.00,,---,0.00,VWS V14.01,2013-03-16 16:00:00,
2013-03-16 12:02:00,36.0,21.8,29.84,West,259,0.0,3.0,56,0.00,,---,0.00,VWS V14.01,2013-03-16 16:02:00,
2013-03-16 12:08:00,36.0,22.3,29.83,South,180,3.0,5.0,57,0.00,,---,0.00,VWS V14.01,2013-03-16 16:08:00,
2013-03-16 12:13:00,36.3,22.1,29.83,ESE,102,4.0,7.0,56,0.00,,---,0.00,VWS V14.01,2013-03-16 16:13:00,
2013-03-16 12:15:00,36.1,21.9,29.83,East,101,2.0,7.0,56,0.00,,---,0.00,VWS V14.01,2013-03-16 16:15:00,
2013-03-16 12:18:00,36.2,22.5,29.83,NE,53,3.0,4.0,57,0.00,,---,0.00,VWS V14.01,2013-03-16 16:18:00,
2013-03-16 12:23:00,36.2,22.0,29.82,ENE,57,0.0,4.0,56,0.00,,---,0.00,VWS V14.01,2013-03-16 16:23:00,
2013-03-16 12:28:00,36.6,22.4,29.83,South,173,4.0,4.0,56,0.00,,---,0.00,VWS V14.01,2013-03-16 16:28:00,
2013-03-16 12:30:00,36.8,22.6,29.83,South,174,0.0,4.0,56,0.00,,---,0.00,VWS V14.01,2013-03-16 16:30:00,
2013-03-16 12:34:00,36.9,22.7,29.83,South,169,2.0,3.0,56,0.00,,---,0.00,VWS V14.01,2013-03-16 16:34:00,
2013-03-16 12:39:00,37.0,22.8,29.82,SSE,168,3.0,4.0,56,0.00,,---,0.00,VWS V14.01,2013-03-16 16:39:00,
2013-03-16 12:44:00,36.4,22.6,29.82,West,263,3.0,4.0,57,0.00,,---,0.00,VWS V14.01,2013-03-16 16:44:00,
2013-03-16 12:45:00,36.2,22.9,29.82,West,277,3.0,6.0,58,0.00,,---,0.00,VWS V14.01,2013-03-16 16:45:00,
2013-03-16 12:49:00,35.7,23.2,29.82,West,279,1.0,5.0,60,0.00,,---,0.00,VWS V14.01,2013-03-16 16:49:00,
2013-03-16 12:55:00,35.8,24.5,29.82,SE,131,2.0,6.0,63,0.00,,---,0.00,VWS V14.01,2013-03-16 16:55:00,
2013-03-16 13:00:00,35.2,24.3,29.82,SE,131,0.0,6.0,64,0.00,,---,0.00,VWS V14.01,2013-03-16 17:00:00,
2013-03-16 13:05:00,35.2,25.0,29.82,SE,125,1.0,3.0,66,0.00,,---,0.00,VWS V14.01,2013-03-16 17:05:00,
2013-03-16 13:10:00,35.3,25.5,29.82,SE,125,2.0,3.0,67,0.00,,---,0.00,VWS V14.01,2013-03-16 17:10:00,
2013-03-16 13:15:00,34.7,25.6,29.82,SE,125,0.0,4.0,69,0.00,,---,0.00,VWS V14.01,2013-03-16 17:15:00,
2013-03-16 13:21:00,34.1,25.4,29.82,SE,138,0.0,1.0,70,0.00,,---,0.00,VWS V14.01,2013-03-16 17:21:00,
2013-03-16 13:26:00,33.9,25.8,29.83,WSW,242,0.0,3.0,72,0.00,,---,0.00,VWS V14.01,2013-03-16 17:26:00,
2013-03-16 13:30:00,33.7,26.0,29.82,WSW,242,0.0,3.0,73,0.00,,---,0.00,VWS V14.01,2013-03-16 17:30:00,
2013-03-16 13:31:00,33.7,26.0,29.82,WSW,242,0.0,0.0,73,0.00,,---,0.00,VWS V14.01,2013-03-16 17:31:00,
2013-03-16 13:36:00,33.6,26.2,29.82,WSW,242,0.0,1.0,74,0.00,,---,0.00,VWS V14.01,2013-03-16 17:36:00,
2013-03-16 13:42:00,33.5,26.4,29.81,WSW,242,0.0,1.0,75,0.00,,---,0.00,VWS V14.01,2013-03-16 17:42:00,
2013-03-16 13:45:00,33.6,26.9,29.81,WSW,242,0.0,1.0,76,0.00,,---,0.00,VWS V14.01,2013-03-16 17:45:00,
2013-03-16 13:47:00,33.6,26.9,29.81,WSW,242,0.0,0.0,76,0.00,,---,0.00,VWS V14.01,2013-03-16 17:47:00,
2013-03-16 13:52:00,33.7,27.3,29.81,WSW,242,0.0,0.0,77,0.01,,---,0.01,VWS V14.01,2013-03-16 17:52:00,
2013-03-16 13:57:00,33.6,27.2,29.81,WSW,242,0.0,0.0,77,0.01,,---,0.01,VWS V14.01,2013-03-16 17:57:00,
2013-03-16 14:00:00,33.5,27.1,29.81,WSW,242,0.0,0.0,77,0.01,,---,0.01,VWS V14.01,2013-03-16 18:00:00,
2013-03-16 14:03:00,33.4,27.0,29.81,WSW,242,0.0,0.0,77,0.01,,---,0.01,VWS V14.01,2013-03-16 18:03:00,
2013-03-16 14:08:00,33.4,27.3,29.81,WSW,242,0.0,0.0,78,0.01,,---,0.01,VWS V14.01,2013-03-16 18:08:00,
2013-03-16 14:13:00,33.3,27.5,29.81,WSW,242,0.0,0.0,79,0.01,,---,0.01,VWS V14.01,2013-03-16 18:13:00,
2013-03-16 14:15:00,33.2,27.4,29.81,WSW,242,0.0,0.0,79,0.01,,---,0.01,VWS V14.01,2013-03-16 18:15:00,
2013-03-16 14:18:00,33.0,27.2,29.81,WSW,242,0.0,0.0,79,0.01,,---,0.01,VWS V14.01,2013-03-16 18:18:00,
2013-03-16 14:24:00,32.9,27.4,29.81,WSW,242,0.0,0.0,80,0.02,,---,0.02,VWS V14.01,2013-03-16 18:24:00,
2013-03-16 14:29:00,33.0,27.5,29.81,WSW,242,0.0,0.0,80,0.02,,---,0.02,VWS V14.01,2013-03-16 18:29:00,
2013-03-16 14:30:00,33.0,27.5,29.81,WSW,242,0.0,0.0,80,0.02,,---,0.02,VWS V14.01,2013-03-16 18:30:00,
2013-03-16 14:34:00,33.1,27.6,29.80,WSW,242,0.0,0.0,80,0.02,,---,0.02,VWS V14.01,2013-03-16 18:34:00,
2013-03-16 14:39:00,32.9,27.7,29.80,East,88,3.0,3.0,81,0.02,,---,0.02,VWS V14.01,2013-03-16 18:39:00,
2013-03-16 14:44:00,32.9,27.7,29.80,East,88,2.0,3.0,81,0.02,,---,0.02,VWS V14.01,2013-03-16 18:44:00,
2013-03-16 14:45:00,32.8,27.6,29.80,East,88,0.0,3.0,81,0.02,,---,0.02,VWS V14.01,2013-03-16 18:45:00,
2013-03-16 14:50:00,32.7,27.5,29.80,East,88,0.0,0.0,81,0.03,,---,0.03,VWS V14.01,2013-03-16 18:50:00,
2013-03-16 14:55:00,32.7,27.8,29.79,East,88,2.0,3.0,82,0.03,,---,0.03,VWS V14.01,2013-03-16 18:55:00,
2013-03-16 15:00:00,32.6,27.7,29.78,ESE,106,3.0,5.0,82,0.04,,---,0.04,VWS V14.01,2013-03-16 19:00:00,
2013-03-16 15:05:00,32.8,27.9,29.79,ESE,105,0.0,4.0,82,0.03,,---,0.04,VWS V14.01,2013-03-16 19:05:00,
2013-03-16 15:10:00,32.9,28.0,29.78,SE,128,3.0,5.0,82,0.03,,---,0.04,VWS V14.01,2013-03-16 19:10:00,
2013-03-16 15:15:00,33.1,28.5,29.78,ESE,111,4.0,6.0,83,0.03,,---,0.04,VWS V14.01,2013-03-16 19:15:00,
2013-03-16 15:21:00,33.0,28.4,29.78,SE,132,4.0,7.0,83,0.03,,---,0.04,VWS V14.01,2013-03-16 19:21:00,
2013-03-16 15:26:00,33.3,28.7,29.78,East,99,0.0,8.0,83,0.03,,---,0.04,VWS V14.01,2013-03-16 19:26:00,
2013-03-16 15:30:00,33.6,29.0,29.78,ENE,67,3.0,8.0,83,0.03,,---,0.04,VWS V14.01,2013-03-16 19:30:00,
2013-03-16 15:31:00,33.6,29.0,29.78,ENE,67,3.0,8.0,83,0.03,,---,0.04,VWS V14.01,2013-03-16 19:31:00,
2013-03-16 15:36:00,33.6,29.0,29.78,ESE,121,3.0,5.0,83,0.02,,---,0.04,VWS V14.01,2013-03-16 19:36:00,
2013-03-16 15:41:00,33.3,28.4,29.78,East,83,5.0,7.0,82,0.02,,---,0.04,VWS V14.01,2013-03-16 19:41:00,
2013-03-16 15:45:00,33.2,28.3,29.78,East,81,2.0,7.0,82,0.02,,---,0.04,VWS V14.01,2013-03-16 19:45:00,
2013-03-16 15:46:00,33.2,28.3,29.78,East,81,1.0,3.0,82,0.02,,---,0.04,VWS V14.01,2013-03-16 19:46:00,
2013-03-16 15:51:00,33.4,28.5,29.78,East,82,3.0,3.0,82,0.02,,---,0.04,VWS V14.01,2013-03-16 19:51:00,
2013-03-16 15:57:00,33.4,28.5,29.77,SE,126,3.0,5.0,82,0.02,,---,0.04,VWS V14.01,2013-03-16 19:57:00,
2013-03-16 16:00:00,33.4,28.5,29.77,East,98,2.0,6.0,82,0.02,,---,0.04,VWS V14.01,2013-03-16 20:00:00,
2013-03-16 16:02:00,33.4,28.5,29.78,ESE,110,4.0,4.0,82,0.00,,---,0.04,VWS V14.01,2013-03-16 20:02:00,
2013-03-16 16:08:00,33.3,28.4,29.77,ESE,110,2.0,6.0,82,0.00,,---,0.04,VWS V14.01,2013-03-16 20:08:00,
2013-03-16 16:13:00,33.5,28.6,29.78,East,86,3.0,6.0,82,0.00,,---,0.04,VWS V14.01,2013-03-16 20:13:00,
2013-03-16 16:15:00,33.5,28.6,29.78,East,79,2.0,6.0,82,0.00,,---,0.04,VWS V14.01,2013-03-16 20:15:00,
2013-03-16 16:18:00,33.4,28.5,29.78,East,81,3.0,5.0,82,0.00,,---,0.04,VWS V14.01,2013-03-16 20:18:00,
2013-03-16 16:23:00,33.4,28.5,29.77,ENE,76,2.0,5.0,82,0.00,,---,0.04,VWS V14.01,2013-03-16 20:23:00,
2013-03-16 16:28:00,33.3,28.4,29.77,East,89,2.0,5.0,82,0.00,,---,0.04,VWS V14.01,2013-03-16 20:28:00,
2013-03-16 16:30:00,33.2,28.3,29.77,East,89,0.0,5.0,82,0.00,,---,0.04,VWS V14.01,2013-03-16 20:30:00,
2013-03-16 16:34:00,33.2,28.3,29.77,East,89,0.0,0.0,82,0.00,,---,0.04,VWS V14.01,2013-03-16 20:34:00,
2013-03-16 16:39:00,32.9,28.0,29.77,SE,130,7.0,7.0,82,0.00,,---,0.04,VWS V14.01,2013-03-16 20:39:00,
2013-03-16 16:44:00,32.4,27.5,29.78,ESE,110,4.0,7.0,82,0.01,,---,0.05,VWS V14.01,2013-03-16 20:44:00,
2013-03-16 16:45:00,32.3,27.7,29.78,ESE,110,0.0,7.0,83,0.01,,---,0.05,VWS V14.01,2013-03-16 20:45:00,
2013-03-16 16:49:00,32.3,27.7,29.77,ESE,110,2.0,3.0,83,0.01,,---,0.05,VWS V14.01,2013-03-16 20:49:00,
2013-03-16 16:54:00,32.4,27.8,29.77,ESE,110,0.0,4.0,83,0.01,,---,0.05,VWS V14.01,2013-03-16 20:54:00,
2013-03-16 16:59:00,32.5,27.9,29.78,ESE,123,1.0,5.0,83,0.01,,---,0.05,VWS V14.01,2013-03-16 20:59:00,
2013-03-16 17:00:00,32.5,27.9,29.78,ESE,123,2.0,5.0,83,0.01,,---,0.05,VWS V14.01,2013-03-16 21:00:00,
2013-03-16 17:05:00,32.5,27.9,29.78,ESE,122,0.0,4.0,83,0.01,,---,0.05,VWS V14.01,2013-03-16 21:05:00,
2013-03-16 17:10:00,32.5,27.9,29.79,ESE,122,0.0,4.0,83,0.01,,---,0.05,VWS V14.01,2013-03-16 21:10:00,
2013-03-16 17:15:00,32.6,28.0,29.78,ESE,122,0.0,4.0,83,0.02,,---,0.06,VWS V14.01,2013-03-16 21:15:00,
2013-03-16 17:20:00,32.6,28.3,29.78,ESE,122,2.0,4.0,84,0.02,,---,0.06,VWS V14.01,2013-03-16 21:20:00,
2013-03-16 17:26:00,32.7,28.4,29.77,ESE,122,3.0,4.0,84,0.02,,---,0.06,VWS V14.01,2013-03-16 21:26:00,
2013-03-16 17:30:00,32.7,28.4,29.78,ESE,122,0.0,4.0,84,0.02,,---,0.06,VWS V14.01,2013-03-16 21:30:00,
2013-03-16 17:31:00,32.7,28.4,29.78,ESE,122,0.0,4.0,84,0.02,,---,0.06,VWS V14.01,2013-03-16 21:31:00,
2013-03-16 17:36:00,32.7,28.4,29.77,ESE,122,0.0,3.0,84,0.02,,---,0.06,VWS V14.01,2013-03-16 21:36:00,
2013-03-16 17:41:00,32.7,28.4,29.78,ESE,122,3.0,3.0,84,0.02,,---,0.06,VWS V14.01,2013-03-16 21:41:00,
2013-03-16 17:45:00,32.7,28.4,29.78,ESE,122,0.0,3.0,84,0.02,,---,0.06,VWS V14.01,2013-03-16 21:45:00,
2013-03-16 17:47:00,32.8,28.5,29.78,ESE,122,2.0,2.0,84,0.01,,---,0.06,VWS V14.01,2013-03-16 21:47:00,
2013-03-16 17:52:00,32.6,28.3,29.78,ESE,122,3.0,4.0,84,0.01,,---,0.06,VWS V14.01,2013-03-16 21:52:00,
2013-03-16 17:57:00,32.7,28.4,29.77,ESE,122,0.0,4.0,84,0.02,,---,0.07,VWS V14.01,2013-03-16 21:57:00,
2013-03-16 18:00:00,32.8,28.5,29.77,ESE,122,2.0,4.0,84,0.02,,---,0.07,VWS V14.01,2013-03-16 22:00:00,
2013-03-16 18:02:00,32.8,28.5,29.78,ESE,122,1.0,2.0,84,0.02,,---,0.07,VWS V14.01,2013-03-16 22:02:00,
2013-03-16 18:08:00,32.7,28.4,29.78,ESE,122,0.0,3.0,84,0.02,,---,0.07,VWS V14.01,2013-03-16 22:08:00,
2013-03-16 18:13:00,32.7,28.4,29.78,ESE,122,2.0,4.0,84,0.02,,---,0.07,VWS V14.01,2013-03-16 22:13:00,
2013-03-16 18:15:00,32.7,28.4,29.78,ESE,122,3.0,4.0,84,0.02,,---,0.07,VWS V14.01,2013-03-16 22:15:00,
2013-03-16 18:18:00,32.8,28.5,29.78,ESE,122,0.0,3.0,84,0.01,,---,0.07,VWS V14.01,2013-03-16 22:18:00,
2013-03-16 18:23:00,33.0,28.7,29.78,ESE,123,0.0,3.0,84,0.01,,---,0.07,VWS V14.01,2013-03-16 22:23:00,
2013-03-16 18:28:00,33.0,28.7,29.78,ESE,122,0.0,3.0,84,0.01,,---,0.07,VWS V14.01,2013-03-16 22:28:00,
2013-03-16 18:30:00,33.0,28.7,29.78,ESE,122,0.0,3.0,84,0.01,,---,0.07,VWS V14.01,2013-03-16 22:30:00,
2013-03-16 18:34:00,33.1,28.8,29.78,ESE,122,0.0,2.0,84,0.01,,---,0.07,VWS V14.01,2013-03-16 22:34:00,
2013-03-16 18:39:00,33.1,28.8,29.78,ESE,122,2.0,3.0,84,0.01,,---,0.07,VWS V14.01,2013-03-16 22:39:00,
2013-03-16 18:44:00,33.1,28.8,29.78,ESE,122,0.0,3.0,84,0.01,,---,0.07,VWS V14.01,2013-03-16 22:44:00,
2013-03-16 18:45:00,33.1,28.8,29.78,ESE,122,0.0,3.0,84,0.01,,---,0.07,VWS V14.01,2013-03-16 22:45:00,
2013-03-16 18:49:00,33.0,28.7,29.78,ESE,122,0.0,0.0,84,0.01,,---,0.07,VWS V14.01,2013-03-16 22:49:00,
2013-03-16 18:54:00,33.1,28.8,29.78,ESE,122,0.0,1.0,84,0.01,,---,0.07,VWS V14.01,2013-03-16 22:54:00,
2013-03-16 18:59:00,33.1,28.8,29.78,ESE,122,0.0,3.0,84,0.01,,---,0.07,VWS V14.01,2013-03-16 22:59:00,
2013-03-16 19:00:00,33.0,28.7,29.79,ESE,122,3.0,3.0,84,0.01,,---,0.07,VWS V14.01,2013-03-16 23:00:00,
2013-03-16 19:05:00,32.9,28.6,29.79,ESE,122,0.0,3.0,84,0.00,,---,0.07,VWS V14.01,2013-03-16 23:05:00,
2013-03-16 19:10:00,32.9,28.6,29.79,ESE,122,0.0,4.0,84,0.00,,---,0.07,VWS V14.01,2013-03-16 23:10:00,
2013-03-16 19:15:00,32.9,28.6,29.79,ESE,122,0.0,4.0,84,0.00,,---,0.07,VWS V14.01,2013-03-16 23:15:00,
2013-03-16 19:20:00,33.1,28.8,29.80,ESE,122,0.0,0.0,84,0.00,,---,0.07,VWS V14.01,2013-03-16 23:20:00,
2013-03-16 19:26:00,33.2,28.9,29.80,ESE,122,0.0,0.0,84,0.00,,---,0.07,VWS V14.01,2013-03-16 23:26:00,
2013-03-16 19:30:00,33.2,28.9,29.80,ESE,122,0.0,0.0,84,0.00,,---,0.07,VWS V14.01,2013-03-16 23:30:00,
2013-03-16 19:31:00,33.2,28.9,29.80,ESE,122,0.0,0.0,84,0.00,,---,0.07,VWS V14.01,2013-03-16 23:31:00,
2013-03-16 19:37:00,33.1,28.8,29.81,ESE,122,0.0,1.0,84,0.00,,---,0.07,VWS V14.01,2013-03-16 23:37:00,
2013-03-16 19:42:00,33.0,28.7,29.81,ESE,122,0.0,1.0,84,0.00,,---,0.07,VWS V14.01,2013-03-16 23:42:00,
2013-03-16 19:45:00,33.1,28.8,29.81,ESE,122,0.0,1.0,84,0.00,,---,0.07,VWS V14.01,2013-03-16 23:45:00,
2013-03-16 19:47:00,33.1,28.8,29.81,ESE,122,0.0,0.0,84,0.00,,---,0.07,VWS V14.01,2013-03-16 23:47:00,
2013-03-16 19:52:00,33.3,29.0,29.81,ESE,122,0.0,0.0,84,0.00,,---,0.07,VWS V14.01,2013-03-16 23:52:00,
2013-03-16 19:57:00,33.2,28.9,29.82,ESE,122,0.0,0.0,84,0.00,,---,0.07,VWS V14.01,2013-03-16 23:57:00,
2013-03-16 20:00:00,33.1,28.8,29.82,ESE,122,0.0,0.0,84,0.00,,---,0.07,VWS V14.01,2013-03-17 00:00:00,
2013-03-16 20:03:00,33.1,28.8,29.82,ESE,122,0.0,0.0,84,0.00,,---,0.07,VWS V14.01,2013-03-17 00:03:00,
2013-03-16 20:08:00,33.2,28.9,29.82,ESE,122,0.0,0.0,84,0.00,,---,0.07,VWS V14.01,2013-03-17 00:08:00,
2013-03-16 20:13:00,33.2,28.9,29.83,ESE,122,0.0,0.0,84,0.00,,---,0.07,VWS V14.01,2013-03-17 00:13:00,
2013-03-16 20:15:00,33.2,28.9,29.83,ESE,122,2.0,2.0,84,0.00,,---,0.07,VWS V14.01,2013-03-17 00:15:00,
2013-03-16 20:18:00,33.2,28.9,29.83,ESE,122,0.0,2.0,84,0.00,,---,0.07,VWS V14.01,2013-03-17 00:18:00,
2013-03-16 20:24:00,33.2,28.9,29.83,ESE,122,0.0,3.0,84,0.00,,---,0.07,VWS V14.01,2013-03-17 00:24:00,
2013-03-16 20:29:00,33.2,28.9,29.83,ESE,122,0.0,3.0,84,0.00,,---,0.07,VWS V14.01,2013-03-17 00:29:00,
2013-03-16 20:30:00,33.2,28.9,29.83,ESE,122,3.0,3.0,84,0.00,,---,0.07,VWS V14.01,2013-03-17 00:30:00,
2013-03-16 20:34:00,33.2,28.9,29.83,ESE,122,0.0,3.0,84,0.00,,---,0.07,VWS V14.01,2013-03-17 00:34:00,
2013-03-16 20:39:00,33.2,28.9,29.84,North,5,2.0,3.0,84,0.00,,---,0.07,VWS V14.01,2013-03-17 00:39:00,
2013-03-16 20:44:00,33.2,28.9,29.84,North,9,1.0,3.0,84,0.00,,---,0.07,VWS V14.01,2013-03-17 00:44:00,
2013-03-16 20:45:00,33.2,28.9,29.83,NE,34,2.0,4.0,84,0.00,,---,0.07,VWS V14.01,2013-03-17 00:45:00,
2013-03-16 20:50:00,33.2,28.9,29.84,NNE,21,3.0,5.0,84,0.00,,---,0.07,VWS V14.01,2013-03-17 00:50:00,
2013-03-16 20:55:00,33.0,28.7,29.84,NNE,32,4.0,5.0,84,0.00,,---,0.07,VWS V14.01,2013-03-17 00:55:00,
2013-03-16 21:00:00,32.9,28.6,29.85,NNE,13,6.0,6.0,84,0.00,,---,0.07,VWS V14.01,2013-03-17 01:00:00,
2013-03-16 21:05:00,32.9,28.6,29.85,NNE,30,3.0,4.0,84,0.00,,---,0.07,VWS V14.01,2013-03-17 01:05:00,
2013-03-16 21:11:00,32.9,28.6,29.85,NE,36,2.0,5.0,84,0.00,,---,0.07,VWS V14.01,2013-03-17 01:11:00,
2013-03-16 21:15:00,32.9,28.6,29.86,North,360,1.0,5.0,84,0.00,,---,0.07,VWS V14.01,2013-03-17 01:15:00,
2013-03-16 21:16:00,32.9,28.6,29.86,North,360,0.0,5.0,84,0.00,,---,0.07,VWS V14.01,2013-03-17 01:16:00,
2013-03-16 21:21:00,32.8,28.5,29.85,NE,40,0.0,4.0,84,0.00,,---,0.07,VWS V14.01,2013-03-17 01:21:00,
2013-03-16 21:26:00,32.9,28.6,29.86,NE,40,2.0,4.0,84,0.00,,---,0.07,VWS V14.01,2013-03-17 01:26:00,
2013-03-16 21:30:00,32.8,28.5,29.86,NE,40,2.0,4.0,84,0.00,,---,0.07,VWS V14.01,2013-03-17 01:30:00,
2013-03-16 21:31:00,32.8,28.5,29.86,NE,40,0.0,2.0,84,0.00,,---,0.07,VWS V14.01,2013-03-17 01:31:00,
2013-03-16 21:36:00,32.8,28.2,29.86,NE,40,0.0,5.0,83,0.00,,---,0.07,VWS V14.01,2013-03-17 01:36:00,
2013-03-16 21:42:00,32.8,28.5,29.86,NE,40,1.0,5.0,84,0.00,,---,0.07,VWS V14.01,2013-03-17 01:42:00,
2013-03-16 21:45:00,32.8,28.5,29.86,NE,40,0.0,5.0,84,0.00,,---,0.07,VWS V14.01,2013-03-17 01:45:00,
2013-03-16 21:47:00,32.8,28.5,29.86,NE,40,0.0,1.0,84,0.00,,---,0.07,VWS V14.01,2013-03-17 01:47:00,
2013-03-16 21:52:00,32.8,28.2,29.87,NE,40,0.0,1.0,83,0.00,,---,0.07,VWS V14.01,2013-03-17 01:52:00,
2013-03-16 21:57:00,32.8,28.2,29.87,NE,40,0.0,3.0,83,0.00,,---,0.07,VWS V14.01,2013-03-17 01:57:00,
2013-03-16 22:00:00,32.8,28.2,29.87,North,5,0.0,4.0,83,0.00,,---,0.07,VWS V14.01,2013-03-17 02:00:00,
2013-03-16 22:02:00,32.8,28.2,29.87,North,5,0.0,0.0,83,0.00,,---,0.07,VWS V14.01,2013-03-17 02:02:00,
2013-03-16 22:08:00,32.8,28.2,29.87,North,5,1.0,1.0,83,0.00,,---,0.07,VWS V14.01,2013-03-17 02:08:00,
2013-03-16 22:13:00,32.8,28.2,29.87,North,5,0.0,2.0,83,0.00,,---,0.07,VWS V14.01,2013-03-17 02:13:00,
2013-03-16 22:15:00,32.8,28.2,29.87,North,5,0.0,2.0,83,0.00,,---,0.07,VWS V14.01,2013-03-17 02:15:00,
2013-03-16 22:18:00,32.8,28.2,29.87,North,5,0.0,0.0,83,0.00,,---,0.07,VWS V14.01,2013-03-17 02:18:00,
2013-03-16 22:23:00,32.8,28.2,29.87,North,5,0.0,0.0,83,0.00,,---,0.07,VWS V14.01,2013-03-17 02:23:00,
2013-03-16 22:29:00,32.8,28.2,29.88,North,5,0.0,0.0,83,0.00,,---,0.07,VWS V14.01,2013-03-17 02:29:00,
2013-03-16 22:30:00,32.8,28.2,29.88,North,5,0.0,0.0,83,0.00,,---,0.07,VWS V14.01,2013-03-17 02:30:00,
2013-03-16 22:34:00,32.8,28.2,29.88,North,5,0.0,2.0,83,0.00,,---,0.07,VWS V14.01,2013-03-17 02:34:00,
2013-03-16 22:39:00,32.8,28.2,29.88,North,5,2.0,3.0,83,0.00,,---,0.07,VWS V14.01,2013-03-17 02:39:00,
2013-03-16 22:44:00,32.8,28.2,29.89,North,5,1.0,3.0,83,0.00,,---,0.07,VWS V14.01,2013-03-17 02:44:00,
2013-03-16 22:45:00,32.8,28.2,29.88,North,5,0.0,3.0,83,0.00,,---,0.07,VWS V14.01,2013-03-17 02:45:00,
2013-03-16 22:49:00,32.9,28.3,29.88,North,5,0.0,0.0,83,0.00,,---,0.07,VWS V14.01,2013-03-17 02:49:00,
2013-03-16 22:54:00,32.9,28.3,29.89,North,5,1.0,3.0,83,0.00,,---,0.07,VWS V14.01,2013-03-17 02:54:00,
2013-03-16 22:59:00,32.9,28.3,29.89,North,5,0.0,3.0,83,0.00,,---,0.07,VWS V14.01,2013-03-17 02:59:00,
2013-03-16 23:00:00,32.9,28.3,29.89,North,5,0.0,3.0,83,0.00,,---,0.07,VWS V14.01,2013-03-17 03:00:00,
2013-03-16 23:05:00,32.9,28.0,29.89,North,351,0.0,4.0,82,0.00,,---,0.07,VWS V14.01,2013-03-17 03:05:00,
2013-03-16 23:10:00,32.9,28.3,29.89,North,351,0.0,4.0,83,0.00,,---,0.07,VWS V14.01,2013-03-17 03:10:00,
2013-03-16 23:15:00,32.9,28.3,29.89,North,351,0.0,4.0,83,0.00,,---,0.07,VWS V14.01,2013-03-17 03:15:00,
2013-03-16 23:20:00,32.9,28.0,29.90,North,360,0.0,2.0,82,0.00,,---,0.07,VWS V14.01,2013-03-17 03:20:00,
2013-03-16 23:25:00,32.9,28.0,29.90,North,5,0.0,3.0,82,0.00,,---,0.07,VWS V14.01,2013-03-17 03:25:00,
2013-03-16 23:30:00,32.9,28.0,29.90,North,5,0.0,3.0,82,0.00,,---,0.07,VWS V14.01,2013-03-17 03:30:00,
2013-03-16 23:36:00,32.9,28.0,29.90,North,9,0.0,4.0,82,0.00,,---,0.07,VWS V14.01,2013-03-17 03:36:00,
2013-03-16 23:41:00,32.9,28.0,29.90,North,9,0.0,4.0,82,0.00,,---,0.07,VWS V14.01,2013-03-17 03:41:00,
2013-03-16 23:45:00,32.9,28.0,29.90,North,9,0.0,4.0,82,0.00,,---,0.07,VWS V14.01,2013-03-17 03:45:00,
2013-03-16 23:46:00,32.9,28.0,29.90,North,9,0.0,4.0,82,0.00,,---,0.07,VWS V14.01,2013-03-17 03:46:00,
2013-03-16 23:52:00,33.0,28.1,29.91,North,9,0.0,2.0,82,0.00,,---,0.07,VWS V14.01,2013-03-17 03:52:00,
2013-03-16 23:57:00,33.0,28.1,29.91,North,9,0.0,2.0,82,0.00,,---,0.07,VWS V14.01,2013-03-17 03:57:00,